Staunton, VA

5:09 PM EDT on July 20, 2017 (GMT -0400)
Shenandoah Valley Regional

Weather History for KSHD - June, 2013

Change the Weather History Date:

Sunday, June 30, 2013

  Actual Average Record
Temperature  
Mean Temperature 74 °F -  
Max Temperature 83 °F 85 °F 97 °F (2012)
Min Temperature 64 °F 62 °F 53 °F (2011)
Cooling Degree Days 8    
Growing Degree Days 24 (Base 50)    
Moisture  
Dew Point 65 °F    
Average Humidity 78    
Maximum Humidity 95    
Minimum Humidity 54    
Precipitation  
Precipitation 0.20 in - - ()
Sea Level Pressure  
Sea Level Pressure 29.82 in    
Wind  
Wind Speed 2 mph (South)    
Max Wind Speed 10 mph    
Max Gust Speed 17 mph    
Visibility 8 miles    
Events Rain    
Averages and records for this station are not official NWS values.
T = Trace of Precipitation, MM = Missing Value Source: NWS Daily Summary

Daily Weather History Graph

Daily Weather History Graph

Search for Another Location

Airport or City:

Trip Planner

Search our weather history database for the weather conditions in past years. The results will help you decide how hot, cold, wet, or windy it might be!

Date:

Astronomy

Jun. 30, 2013 Rise Set
Actual Time 5:55 AM EDT 8:42 PM EDT
Civil Twilight 5:24 AM EDT 9:14 PM EDT
Nautical Twilight 4:44 AM EDT 9:53 PM EDT
Astronomical Twilight 3:59 AM EDT 10:38 PM EDT
Moon 12:49 AM EDT (6/30) 1:59 PM EDT (6/30)
Length of Visible Light 15h 50m
Length of Day
14h 47m
Last Quarter, 45% of the Moon is Illuminated
Jun 30
Last Quarter
Jul 8
New
Jul 15
First Quarter
Jul 22
Full
Jul 29
Last Quarter

Hourly Weather History & Observations

Time (EDT) Temp. Heat Index Dew Point Humidity Pressure Visibility Wind Dir Wind Speed Gust Speed Precip Events Conditions
12:15 AM 67.5 °F - 65.5 °F 93% 29.77 in 7.0 mi Calm Calm - N/A   Mostly Cloudy
12:35 AM 67.5 °F - 65.5 °F 93% 29.78 in 7.0 mi WNW 4.6 mph - N/A Rain Rain
12:55 AM 68.2 °F - 65.3 °F 90% 29.77 in 10.0 mi Calm Calm - N/A   Mostly Cloudy
1:15 AM 67.1 °F - 64.6 °F 92% 29.77 in 5.0 mi Calm Calm - N/A   Scattered Clouds
1:35 AM 67.1 °F - 64.8 °F 92% 29.77 in 7.0 mi Calm Calm - N/A   Mostly Cloudy
1:55 AM 67.1 °F - 64.8 °F 92% 29.77 in 5.0 mi Calm Calm - N/A   Scattered Clouds
2:15 AM 66.6 °F - 64.6 °F 93% 29.77 in 5.0 mi Calm Calm - N/A   Scattered Clouds
2:35 AM 66.2 °F - 64.4 °F 94% 29.77 in 4.0 mi Calm Calm - N/A   Scattered Clouds
2:55 AM 66.2 °F - 64.4 °F 94% 29.77 in 4.0 mi Calm Calm - N/A   Overcast
3:15 AM 65.7 °F - 63.9 °F 94% 29.76 in 3.0 mi Calm Calm - N/A   Overcast
3:35 AM 65.7 °F - 64.2 °F 95% 29.76 in 4.0 mi Calm Calm - N/A   Mostly Cloudy
3:55 AM 66.2 °F - 64.4 °F 94% 29.76 in 7.0 mi Calm Calm - N/A   Overcast
4:15 AM 66.2 °F - 64.0 °F 93% 29.76 in 7.0 mi Calm Calm - N/A   Mostly Cloudy
4:35 AM 66.0 °F - 63.9 °F 93% 29.76 in 5.0 mi Calm Calm - N/A   Overcast
4:55 AM 65.7 °F - 63.7 °F 93% 29.76 in 5.0 mi Calm Calm - N/A   Mostly Cloudy
5:15 AM 65.5 °F - 63.7 °F 94% 29.77 in 4.0 mi Calm Calm - N/A   Mostly Cloudy
5:35 AM 64.8 °F - 63.0 °F 94% 29.78 in 4.0 mi Calm Calm - N/A   Mostly Cloudy
5:55 AM 65.1 °F - 63.5 °F 94% 29.79 in 4.0 mi Calm Calm - N/A   Mostly Cloudy
6:15 AM 64.0 °F - 62.4 °F 94% 29.79 in 0.8 mi Calm Calm - N/A   Mostly Cloudy
6:35 AM 64.2 °F - 62.6 °F 94% 29.79 in 3.0 mi Calm Calm - N/A   Scattered Clouds
6:55 AM 65.3 °F - 63.7 °F 94% 29.80 in 5.0 mi Calm Calm - N/A   Clear
7:15 AM 65.8 °F - 64.0 °F 94% 29.81 in 4.0 mi Calm Calm - N/A   Scattered Clouds
7:35 AM 66.4 °F - 64.6 °F 94% 29.82 in 3.0 mi Calm Calm - N/A   Mostly Cloudy
7:55 AM 67.5 °F - 65.3 °F 93% 29.82 in 7.0 mi Calm Calm - N/A   Mostly Cloudy
8:15 AM 68.5 °F - 64.9 °F 88% 29.83 in 10.0 mi Calm Calm - N/A   Scattered Clouds
8:35 AM 68.2 °F - 65.3 °F 90% 29.83 in 10.0 mi Calm Calm - N/A   Scattered Clouds
8:55 AM 68.5 °F - 65.1 °F 89% 29.83 in 10.0 mi Calm Calm - N/A   Mostly Cloudy
9:15 AM 68.9 °F - 65.3 °F 88% 29.84 in 10.0 mi Calm Calm - N/A   Mostly Cloudy
9:35 AM 70.5 °F - 65.8 °F 85% 29.83 in 10.0 mi Calm Calm - N/A   Mostly Cloudy
9:55 AM 72.3 °F - 65.8 °F 80% 29.83 in 10.0 mi Calm Calm - N/A   Scattered Clouds
10:15 AM 73.9 °F - 66.2 °F 77% 29.82 in 10.0 mi Calm Calm - N/A   Scattered Clouds
10:35 AM 74.5 °F - 66.2 °F 75% 29.82 in 10.0 mi Calm Calm - N/A   Scattered Clouds
10:55 AM 76.5 °F - 66.4 °F 71% 29.82 in 10.0 mi Calm Calm - N/A   Clear
11:15 AM 76.6 °F - 65.8 °F 69% 29.82 in 10.0 mi Calm Calm - N/A   Clear
11:35 AM 79.2 °F - 65.3 °F 62% 29.83 in 10.0 mi SW 3.5 mph - N/A   Clear
11:55 AM 79.9 °F - 66.6 °F 64% 29.83 in 10.0 mi West 4.6 mph - N/A   Scattered Clouds
12:15 PM 80.1 °F 82.1 °F 66.0 °F 62% 29.82 in 10.0 mi Calm Calm - N/A   Mostly Cloudy
12:35 PM 81.9 °F 83.7 °F 65.1 °F 57% 29.82 in 10.0 mi South 3.5 mph - N/A   Mostly Cloudy
12:55 PM 81.9 °F 83.4 °F 64.4 °F 55% 29.82 in 10.0 mi SE 6.9 mph - N/A   Mostly Cloudy
1:15 PM 82.8 °F 84.7 °F 65.5 °F 56% 29.82 in 10.0 mi SSE 5.8 mph - N/A   Scattered Clouds
1:35 PM 80.8 °F 82.6 °F 65.5 °F 59% 29.82 in 10.0 mi SSE 5.8 mph - N/A   Mostly Cloudy
1:55 PM 78.8 °F - 66.7 °F 66% 29.82 in 10.0 mi South 10.4 mph 17.3 mph 0.01 in Rain Rain
2:15 PM 74.7 °F - 68.5 °F 81% 29.82 in 10.0 mi East 3.5 mph - 0.19 in   Mostly Cloudy
2:35 PM 78.6 °F - 69.1 °F 72% 29.81 in 10.0 mi SE 4.6 mph - 0.19 in   Clear
2:55 PM 80.6 °F 83.5 °F 68.5 °F 67% 29.81 in 10.0 mi SSE 8.1 mph - 0.19 in   Clear
3:15 PM 81.7 °F 84.7 °F 68.4 °F 64% 29.80 in 10.0 mi SE 8.1 mph - N/A   Clear
3:35 PM 82.2 °F 84.4 °F 66.2 °F 58% 29.80 in 10.0 mi South 6.9 mph - N/A   Clear
3:55 PM 82.6 °F 84.9 °F 66.4 °F 58% 29.80 in 10.0 mi South 5.8 mph - N/A   Scattered Clouds
4:15 PM 83.1 °F 85.4 °F 66.4 °F 57% 29.80 in 10.0 mi South 8.1 mph - N/A   Scattered Clouds
4:35 PM 82.9 °F 84.6 °F 64.9 °F 54% 29.80 in 10.0 mi South 6.9 mph - N/A   Scattered Clouds
4:55 PM 81.9 °F 84.2 °F 66.6 °F 60% 29.80 in 10.0 mi South 8.1 mph - N/A   Scattered Clouds
5:15 PM 80.6 °F 83.2 °F 68.0 °F 65% 29.81 in 10.0 mi SE 6.9 mph - N/A   Scattered Clouds
5:35 PM 79.0 °F - 67.1 °F 67% 29.82 in 10.0 mi SE 6.9 mph - N/A   Clear
5:55 PM 79.2 °F - 66.9 °F 66% 29.82 in 10.0 mi SE 9.2 mph - N/A   Clear
6:15 PM 79.5 °F - 66.6 °F 64% 29.81 in 10.0 mi SSE 9.2 mph - N/A   Clear
6:35 PM 78.6 °F - 66.4 °F 66% 29.82 in 10.0 mi SSE 9.2 mph - N/A   Clear
6:55 PM 77.7 °F - 66.2 °F 68% 29.82 in 10.0 mi SSE 8.1 mph - N/A   Clear
7:15 PM 77.4 °F - 64.6 °F 65% 29.83 in 10.0 mi SSE 8.1 mph - N/A   Clear
7:35 PM 76.5 °F - 64.4 °F 66% 29.84 in 10.0 mi South 6.9 mph - N/A   Clear
7:55 PM 75.6 °F - 64.8 °F 69% 29.84 in 10.0 mi South 10.4 mph - N/A   Clear
8:15 PM 74.7 °F - 65.1 °F 72% 29.85 in 10.0 mi South 9.2 mph - N/A   Clear
8:35 PM 73.6 °F - 64.9 °F 74% 29.87 in 10.0 mi South 8.1 mph - N/A   Clear
8:55 PM 73.2 °F - 64.8 °F 75% 29.88 in 10.0 mi South 8.1 mph - N/A   Clear
9:15 PM 72.7 °F - 64.6 °F 76% 29.88 in 10.0 mi South 5.8 mph - N/A   Clear
9:35 PM 72.5 °F - 64.0 °F 75% 29.88 in 10.0 mi South 5.8 mph - N/A   Clear
9:55 PM 72.5 °F - 63.1 °F 72% 29.89 in 10.0 mi South 5.8 mph - N/A   Clear
10:15 PM 72.5 °F - 63.3 °F 73% 29.90 in 10.0 mi South 5.8 mph - N/A   Clear
10:35 PM 72.5 °F - 63.0 °F 72% 29.90 in 10.0 mi South 5.8 mph - N/A   Clear
10:55 PM 72.1 °F - 62.6 °F 72% 29.90 in 10.0 mi South 4.6 mph - N/A   Clear
11:15 PM 71.8 °F - 63.0 °F 74% 29.90 in 10.0 mi SW 3.5 mph - N/A   Scattered Clouds
11:35 PM 70.7 °F - 63.7 °F 78% 29.91 in 10.0 mi WSW 4.6 mph - N/A   Mostly Cloudy
11:55 PM 70.7 °F - 63.9 °F 79% 29.91 in 10.0 mi WSW 3.5 mph - N/A   Overcast